Location: ???????
(55.3754°N, 39.3545°E)
Time: 08:49:57
(UTC+00:00)

CZ-4C R/B - Pass Details

Date: 14 April 2026
Orbit: 408 x 501 km, 98.0° (Epoch: 9 May)

Event Time Altitude Azimuth Distance (km) Brightness Sun altitude
Rises 22:15:40 0° 13° (NNE) 2,386 8.0 -24.0°
Reaches altitude 10° 22:17:41 10° 11° (N) 1,507 6.6 -23.9°
Enters shadow 22:19:51 38° 358° (N) 649 4.1 -23.9°
